Regional Weather Roundup
Issued by NWS Boston, MA

Home | Current Version | Previous Version | Text Only | Print | Product List | Glossary On
Versions: 1 2 3 4 5 6 7 8 9 10 11 12 13 14 15 16 17 18 19 20 21 22 23 24 25 26 27 28 29 30 31 32 33 34 35 36 37 38 39 40 41 42 43 44 45 46 47 48 49 50
000
ASUS41 KBOX 041710
RWRBOX

REGIONAL WEATHER ROUNDUP
NATIONAL WEATHER SERVICE TAUNTON MA
100 PM EDT SAT JUL 04 2015

NOTE:  "FAIR" INDICATES FEW OR NO CLOUDS BELOW 12,000 FEET WITH NO
SIGNIFICANT WEATHER AND/OR OBSTRUCTIONS TO VISIBILITY.  THE FOLLOWING
OBSERVATION LOCATIONS DO NOT REPORT PRESENT WEATHER...PROVINCETOWN...
SMITHFIELD...BLOCK ISLAND...KEENE...AND OXFORD.

MAZALL-041800-
EASTERN MASSACHUSETTS

CITY           SKY/WX    TMP DP  RH WIND       PRES   REMARKS
BOSTON         CLOUDY    70  60  70 NE8       29.98F
BEVERLY        CLOUDY    73  56  54 CALM      29.97F
LAWRENCE       CLOUDY    73  55  53 CALM      30.00F
BEDFORD        CLOUDY    74  53  48 S9        29.96F
BLUE HILL        N/A     72  53  51 VRB3      29.98F
NORWOOD        CLOUDY    75  53  46 VRB3      29.97F
MARSHFIELD     CLOUDY    72  61  68 NE3       30.00S
PLYMOUTH       CLOUDY    73  55  53 VRB6      29.98F
TAUNTON        CLOUDY    74  53  48 E5        29.97F
NEW BEDFORD    CLOUDY    73  53  49 E6        29.96F
$$

MAZALL-041800-
CAPE COD AND THE ISLANDS

CITY           SKY/WX    TMP DP  RH WIND       PRES   REMARKS
FALMOUTH       CLOUDY    70  54  56 E7G14     29.98S
HYANNIS        CLOUDY    68  53  58 VRB7      29.97F
CHATHAM        CLOUDY    63  53  70 SE6       30.00S
PROVINCETOWN   CLOUDY    75  16  10 SE7       29.99S
NANTUCKET      CLOUDY    68  51  54 E12       29.97F
MARTHAS VNYRD  CLOUDY    70  53  54 E7        29.97S
$$

MAZALL-041800-
CENTRAL AND WESTERN MASSACHUSETTS

CITY           SKY/WX    TMP DP  RH WIND       PRES   REMARKS
WORCESTER      CLOUDY    70  53  54 SW3       30.01S
FITCHBURG      CLOUDY    72  53  51 CALM      29.99F
ORANGE         LGT RAIN  66  61  84 N3        30.00S
SPRINGFIELD    CLOUDY    69  60  74 NW6       29.98S
WESTFIELD      LGT RAIN  68  59  73 N6        29.99S
NORTH ADAMS    LGT RAIN  63  60  90 E3        30.01S FOG
PITTSFIELD     LGT RAIN  62  59  90 CALM      30.01R FOG
$$

RIZALL-041800-
RHODE ISLAND

CITY           SKY/WX    TMP DP  RH WIND       PRES   REMARKS
PROVIDENCE     CLOUDY    73  52  47 SE5       29.97F
NEWPORT        CLOUDY    71  54  54 E6        29.97F
BLOCK ISLAND   CLOUDY    68  61  77 E9        29.96F
SMITHFIELD     CLOUDY    73  52  46 E3        29.98F
WESTERLY       CLOUDY    72  61  68 E9        29.97S
$$

CTZALL-041800-
CONNECTICUT

CITY           SKY/WX    TMP DP  RH WIND       PRES   REMARKS
BRADLEY INTL   CLOUDY    70  59  68 N3        29.98S
HARTFORD       CLOUDY    71  59  65 VRB6      29.97S
BRIDGEPORT     CLOUDY    72  61  68 E8        29.96F
DANBURY        LGT RAIN  69  59  70 N6        29.99F
GROTON         CLOUDY    73  60  63 SE7       29.95F
NEW HAVEN      CLOUDY    72  62  71 CALM      29.97S
CHESTER        NOT AVBL
MERIDEN        CLOUDY    73  58  59 NW3       29.97S
WILLIMANTIC    CLOUDY    73  55  53 VRB3      29.97F
OXFORD         CLOUDY    70  54  56 NE5       30.01S
$$

MEZ002-015-021-024-NHZ003-005-008-011-012-014-VTZ005-008-041800-
NORTHERN NEW ENGLAND

CITY           SKY/WX    TMP DP  RH WIND       PRES   REMARKS
PORTLAND ME    CLOUDY    71  61  70 E5        29.98F
BANGOR ME      CLOUDY    76  52  43 S8        29.98F
CONCORD NH     CLOUDY    69  59  70 SW5       29.99S
MANCHESTER NH  CLOUDY    69  58  67 SW5       29.97S
NASHUA NH      CLOUDY    71  60  68 CALM      29.99F
PORTSMOUTH NH  CLOUDY    69  59  69 SW2       29.97F
JAFFREY NH     LGT RAIN  66  57  72 W3        30.02R
KEENE NH       CLOUDY    64  57  77 CALM      30.02R
BURLINGTON VT  CLOUDY    73  54  51 S8        29.94S
MT. WASHINGTON PTSUNNY   48  36  61 W9          N/A
$$

NYZ052-076-041800-
EASTERN NEW YORK

CITY           SKY/WX    TMP DP  RH WIND       PRES   REMARKS
ALBANY         LGT RAIN  64  61  90 S6        29.99S FOG
NEW YORK CITY  LGT RAIN  71  61  70 NE9       29.95F
$$

ANZALL-041800-
MARINE OBSERVATIONS

STATION/POSITION TIME  TEMP    WIND        PRES    VSBY  WAVE
                       AIR SEA DIR/SP/G                  HT/PER
                 (UTC) (F)     (DEG/KT/KT) (MB)    (MI)  (FT/S)
BOSTON BUOY      1650   63 63  100/  4/  4 1015.5F         1/ 9
BUZZARDS BAY     1600           80/  6/  7 1015.6F
NANTUCKET SOUND  1650   64 69  110/ 12/ 14 1014.5F         1/ 3
MASS BAY-STELLWA 1604   63 59  150/  4/  6 1014.7F  1 7/8  2/ 6
ISLE OF SHOALS   1700   63     170/  4/  4 1014.9F
S OF BLOCK IS    1608      66                N/A           4/ 9
$$

......................KEY.........................
  SKY/WX - SKY CONDITION/PRESENT WEATHER
  TMP    - TEMPERATURE IN FAHRENHEIT
  DWPT   - DEWPOINT IN FAHRENHEIT
  RH     - RELATIVE HUMIDITY IN PERCENT
  WIND   - DIRECTION AND SPEED IN MPH
  PRES   - MEAN SEA LEVEL PRESSURE IN INCHES OF HG
  WCI    - WIND CHILL INDEX
  VSB    - VISIBILITY IN MILES
  HX     - HEAT INDEX
  TC     - TEMPERATURE IN CELSIUS
  VRB    - VARIABLE WIND DIRECTION
  N/A    - NOT AVAILABLE


USA.gov is the U.S. government's official web portal to all federal, state and local government web resources and services.